Погода в Добрянке

Украина / Кировоградская область     48°20′52″N   30°54′38″E
темп.,
°C
ветер,
м/с
пор.,
м/с
влажн.,
%
обл.,
%
осадки,
мм/ч
давл.,
гПа
погр.,
м
16 мая, вс
вс1600:00+13ссв11775 0.0 101210
03:00+12в338022 0.0 101229
06:00+12вюв2287100 0.0 101218
09:00+18вюв3366100 0.0 1012358
12:00+22в3448100 0.0 10111585
15:00+23в4443100 0.0 10102135
18:00+22вюв4651100 0.0 1009431
21:00+18св2258100 0.0 100813
17 мая, пн
пн1700:00+16ссв367373 0.0 1007123
03:00+15ссв2378100 0.1 100655
06:00+15ссз3598100 6.3 1004141
09:00+15ссз51096100 8.9 1004378
12:00+19ссз5778100 0.3 10021059
15:00+18зсз688624 1.5 1001410
18:00+15зсз81389100 2.4 1001513
21:00+14зюз5990100 4.2 1003360
18 мая, вт
вт1800:00+12юз489612 0.1 1004182
03:00+12юв379654 0.1 1003143
06:00+12ююв41098100 0.0 1003261
09:00+16ююв71185100 0.3 1003566
12:00+14ююв6119598 5.7 1003598
15:00+18ю787576 7.6 10021084
18:00+17зюз677753 3.6 1002962
21:00+11з610905 3.9 1004412
19 мая, ср
ср1900:00+11юз6987100 0.0 1004593
03:00+11зюз61093100 0.1 1003727
06:00+11з71294100 0.6 1003868
09:00+11з91490100 1.1 10051057
12:00+11з91487100 0.3 1007900
15:00+11з81590100 1.5 1009829
18:00+15з7117581 0.7 10091261
21:00+11з49894 0.8 1011170
20 мая, чт
чт2000:00+10з35910 0.0 101278
03:00+10зюз2388100 0.0 101258
06:00+11юв1186100 0.0 101210
09:00+14юв3476100 0.0 1011337
12:00+17ююв5665100 0.0 1011743
15:00+15юв3679100 1.3 1010679
18:00+13ссв4688100 1.4 1008319
21:00+12в4995100 5.4 1007378